Monticello, KY

6:31 PM EST on February 22, 2018 (GMT -0500)
Wayne County

Weather History for KEKQ - December, 2013

Change the Weather History Date:

Thursday, December 5, 2013

  Actual Average Record
Temperature  
Mean Temperature 54 °F -  
Max Temperature 70 °F 52 °F 72 °F (1982)
Min Temperature 39 °F 30 °F 10 °F (2008)
Degree Days  
Heating Degree Days 10    
Growing Degree Days 4 (Base 50)    
Moisture  
Dew Point 52 °F    
Average Humidity 92    
Maximum Humidity 100    
Minimum Humidity 75    
Precipitation  
Precipitation 1.15 in - - ()
Sea Level Pressure  
Sea Level Pressure 30.00 in    
Wind  
Wind Speed 9 mph (NW)    
Max Wind Speed 16 mph    
Max Gust Speed 20 mph    
Visibility 5 miles    
Events Fog , Rain , Thunderstorm    
Averages and records for this station are not official NWS values.
T = Trace of Precipitation, MM = Missing Value Source: NWS Daily Summary

Daily Weather History Graph

Daily Weather History Graph

Search for Another Location

Airport or City:

Trip Planner

Search our weather history database for the weather conditions in past years. The results will help you decide how hot, cold, wet, or windy it might be!

Date:

Astronomy

Dec. 05, 2013 Rise Set
Actual Time 6:37 AM CST 4:22 PM CST
Civil Twilight 6:08 AM CST 4:51 PM CST
Nautical Twilight 5:36 AM CST 5:23 PM CST
Astronomical Twilight 5:05 AM CST 5:55 PM CST
Moon 8:58 AM CST (12/5) 7:40 PM CST (12/5)
Length of Visible Light 10h 42m
Length of Day
9h 45m
Waxing Crescent, 11% of the Moon is Illuminated
Dec 5
Waxing Crescent
Dec 9
First Quarter
Dec 17
Full
Dec 25
Last Quarter
Jan 1
New

Hourly Weather History & Observations

Time (CST) Temp. Windchill Dew Point Humidity Pressure Visibility Wind Dir Wind Speed Gust Speed Precip Events Conditions
12:26 AM 66.2 °F - 60.8 °F 83% 29.92 in 10.0 mi South 8.1 mph - N/A   Overcast
12:56 AM 68.0 °F - 59.9 °F 75% 29.93 in 10.0 mi SSW 5.8 mph - N/A   Overcast
1:56 AM 65.8 °F - 59.9 °F 81% 29.93 in 10.0 mi South 8.1 mph - 0.00 in Rain Light Rain
2:56 AM 65.8 °F - 59.9 °F 81% 29.94 in 10.0 mi South 8.1 mph - 0.00 in   Mostly Cloudy
3:21 AM 66.2 °F - 60.8 °F 83% 29.94 in 10.0 mi South 9.2 mph - 0.00 in   Mostly Cloudy
3:31 AM 66.2 °F - 60.8 °F 83% 29.93 in 10.0 mi South 9.2 mph - 0.00 in   Mostly Cloudy
3:41 AM 66.2 °F - 60.8 °F 83% 29.93 in 10.0 mi South 10.4 mph - 0.00 in   Mostly Cloudy
3:56 AM 66.9 °F - 61.0 °F 81% 29.93 in 10.0 mi South 10.4 mph - 0.00 in   Scattered Clouds
4:56 AM 65.8 °F - 61.0 °F 84% 29.94 in 10.0 mi South 9.2 mph - N/A   Scattered Clouds
5:56 AM 65.8 °F - 59.9 °F 81% 29.95 in 10.0 mi South 10.4 mph - N/A   Partly Cloudy
6:56 AM 66.9 °F - 61.0 °F 81% 29.95 in 10.0 mi South 11.5 mph - N/A   Partly Cloudy
7:31 AM 66.2 °F - 60.8 °F 83% 29.95 in 10.0 mi South 9.2 mph - N/A   Mostly Cloudy
7:56 AM 65.8 °F - 61.0 °F 84% 29.96 in 10.0 mi South 9.2 mph - N/A   Overcast
8:29 AM 66.2 °F - 60.8 °F 83% 29.97 in 10.0 mi South 8.1 mph - N/A   Scattered Clouds
8:56 AM 68.9 °F - 61.9 °F 78% 29.96 in 10.0 mi South 9.2 mph - N/A   Partly Cloudy
9:27 AM 69.8 °F - 62.6 °F 78% 29.97 in 10.0 mi SSW 13.8 mph - 0.00 in Rain Light Rain
9:56 AM 68.0 °F - 63.0 °F 84% 29.97 in 3.0 mi SSW 11.5 mph - 0.00 in Rain Light Rain
10:56 AM 70.0 °F - 63.9 °F 81% 29.96 in 10.0 mi SSW 11.5 mph 19.6 mph 0.00 in   Mostly Cloudy
11:14 AM 69.8 °F - 64.4 °F 83% 29.95 in 1.8 mi SW 15.0 mph - 0.01 in Rain Light Rain
11:26 AM 68.0 °F - 64.4 °F 88% 29.94 in 2.5 mi SSW 10.4 mph - 0.02 in Rain Light Rain
11:33 AM 68.0 °F - 64.4 °F 88% 29.94 in 6.0 mi SSW 9.2 mph - 0.02 in Rain Light Rain
11:49 AM 68.0 °F - 64.4 °F 88% 29.93 in 1.8 mi SW 4.6 mph - 0.05 in Rain Rain
11:56 AM 66.9 °F - 64.9 °F 93% 29.93 in 1.8 mi West 5.8 mph - 0.07 in Rain Rain
12:02 PM 66.2 °F - 64.4 °F 94% 29.94 in 1.2 mi WNW 16.1 mph - 0.04 in Rain Rain
12:05 PM 64.4 °F - 62.6 °F 94% 29.94 in 0.8 mi WNW 15.0 mph - 0.08 in Rain Heavy Rain
12:15 PM 60.8 °F - 59.0 °F 94% 29.95 in 0.8 mi WNW 15.0 mph - 0.15 in Rain Heavy Rain
12:24 PM 59.0 °F - 57.2 °F 94% 29.94 in 0.5 mi NNW 11.5 mph - 0.25 in Fog , Rain Heavy Rain
12:34 PM 57.2 °F - 57.2 °F 100% 29.95 in 0.8 mi WSW 4.6 mph - 0.28 in Rain Heavy Rain
12:37 PM 57.2 °F - 57.2 °F 100% 29.95 in 1.2 mi Calm Calm - 0.28 in Rain Light Rain
12:40 PM 57.2 °F - 57.2 °F 100% 29.95 in 2.5 mi Variable 3.5 mph - 0.28 in Rain Light Rain
12:45 PM 57.2 °F - 57.2 °F 100% 29.95 in 10.0 mi SW 5.8 mph - 0.28 in   Overcast
12:56 PM 57.9 °F - 56.8 °F 96% 29.96 in 5.0 mi WNW 8.1 mph - 0.29 in Rain Light Rain
1:15 PM 55.4 °F - 55.4 °F 100% 29.96 in 2.5 mi West 9.2 mph - 0.03 in Rain Light Rain
1:24 PM 55.4 °F - 55.4 °F 100% 29.96 in 7.0 mi WNW 9.2 mph - 0.03 in Rain Light Rain
1:56 PM 54.9 °F - 52.9 °F 93% 29.97 in 10.0 mi NNW 4.6 mph - 0.03 in   Overcast
2:56 PM 54.0 °F - 52.0 °F 93% 29.98 in 6.0 mi NW 5.8 mph - 0.01 in   Overcast
3:22 PM 53.6 °F - 53.6 °F 100% 29.97 in 2.0 mi NNW 5.8 mph - 0.00 in Rain Light Rain
3:38 PM 53.6 °F - 51.8 °F 94% 29.98 in 2.5 mi North 6.9 mph - 0.00 in Rain Light Rain
3:56 PM 52.0 °F - 50.9 °F 96% 29.99 in 1.8 mi North 6.9 mph - 0.01 in Rain Light Rain
4:07 PM 51.8 °F - 51.8 °F 100% 29.98 in 1.0 mi North 8.1 mph - 0.01 in Rain Heavy Rain
4:17 PM 51.8 °F - 50.0 °F 94% 29.99 in 1.2 mi NNW 8.1 mph - 0.02 in Rain Light Rain
4:24 PM 51.8 °F - 50.0 °F 94% 29.99 in 2.0 mi NNW 4.6 mph - 0.02 in Rain Light Rain
4:35 PM 51.8 °F - 50.0 °F 94% 30.00 in 1.2 mi NW 10.4 mph - 0.06 in Rain Rain
4:56 PM 48.9 °F - 47.8 °F 96% 30.03 in 1.2 mi NW 11.5 mph - 0.14 in Rain Heavy Rain
5:05 PM 48.2 °F - 48.2 °F 100% 30.01 in 1.5 mi NNW 8.1 mph - 0.03 in Rain Heavy Rain
5:09 PM 48.2 °F - 48.2 °F 100% 30.01 in 1.0 mi NW 10.4 mph - 0.05 in Rain Heavy Rain
5:18 PM 48.2 °F - 46.4 °F 93% 30.02 in 1.5 mi NW 12.7 mph - 0.07 in Rain Light Rain
5:23 PM 48.2 °F - 46.4 °F 93% 30.02 in 3.0 mi NNW 13.8 mph - 0.08 in Rain Light Rain
5:25 PM 48.2 °F - 46.4 °F 93% 30.03 in 2.5 mi NNW 12.7 mph - 0.09 in Rain Light Rain
5:41 PM 46.4 °F 40.7 °F 46.4 °F 100% 30.03 in 7.0 mi NW 12.7 mph - 0.09 in Rain Light Rain
5:56 PM 46.9 °F - 45.9 °F 96% 30.05 in 9.0 mi NW 9.2 mph - 0.09 in   Overcast
6:56 PM 45.0 °F 39.7 °F 43.9 °F 96% 30.03 in 5.0 mi NNE 10.4 mph - 0.03 in Rain Light Rain
7:10 PM 44.6 °F 38.8 °F 44.6 °F 100% 30.00 in 6.0 mi NNE 11.5 mph 18.4 mph 0.00 in Rain Light Rain
7:47 PM 44.6 °F 39.7 °F 44.6 °F 100% 30.06 in 2.5 mi NNW 9.2 mph - 0.03 in Rain Rain
7:56 PM 43.9 °F 37.5 °F 43.0 °F 97% 30.09 in 1.8 mi NNW 12.7 mph - 0.06 in Rain Heavy Rain
8:01 PM 44.6 °F 40.2 °F 42.8 °F 93% 30.07 in 2.0 mi North 8.1 mph - 0.00 in Rain Rain
8:22 PM 42.8 °F 35.8 °F 42.8 °F 100% 30.08 in 3.0 mi North 13.8 mph - 0.02 in Rain Light Rain
8:39 PM 42.8 °F 38.6 °F 42.8 °F 100% 30.08 in 2.0 mi East 6.9 mph - 0.03 in Rain Light Rain
8:56 PM 41.9 °F 36.3 °F 41.9 °F 100% 30.11 in 2.0 mi NNW 9.2 mph - 0.08 in Rain Rain
9:10 PM 42.8 °F 38.0 °F 41.0 °F 93% 30.07 in 3.0 mi North 8.1 mph - 0.01 in Rain Rain
9:23 PM 42.8 °F 37.0 °F 41.0 °F 93% 30.07 in 1.8 mi NNE 10.4 mph - 0.05 in Rain Heavy Rain
9:34 PM 42.8 °F 37.0 °F 39.2 °F 87% 30.08 in 2.0 mi NNE 10.4 mph - 0.07 in Rain Rain
9:46 PM 42.8 °F 38.0 °F 41.0 °F 93% 30.07 in 4.0 mi NE 8.1 mph - 0.07 in Rain Light Rain
9:56 PM 41.9 °F 37.5 °F 41.0 °F 97% 30.09 in 3.0 mi NNE 6.9 mph - 0.08 in Rain Light Rain
10:01 PM 42.8 °F 40.1 °F 41.0 °F 93% 30.08 in 2.5 mi NNE 4.6 mph - 0.01 in Rain Light Rain
10:04 PM 42.8 °F 39.3 °F 41.0 °F 93% 30.09 in 1.2 mi NE 5.8 mph - 0.05 in Rain Light Rain
10:07 PM 41.0 °F 38.0 °F 39.2 °F 93% 30.10 in 0.8 mi ENE 4.6 mph - 0.10 in Rain Heavy Rain
10:16 PM 41.0 °F 35.8 °F 39.2 °F 93% 30.10 in 1.2 mi NE 8.1 mph - 0.12 in Rain Light Rain
10:23 PM 41.0 °F 38.0 °F 39.2 °F 93% 30.10 in 1.8 mi ENE 4.6 mph - 0.13 in Rain Rain
10:35 PM 41.0 °F 35.8 °F 39.2 °F 93% 30.11 in 3.0 mi North 8.1 mph - 0.14 in Rain Light Rain
10:48 PM 41.0 °F 36.4 °F 39.2 °F 93% 30.11 in 8.0 mi NNE 6.9 mph - 0.14 in Rain Light Rain
10:56 PM 41.0 °F 36.4 °F 39.9 °F 96% 30.13 in 10.0 mi North 6.9 mph - 0.14 in   Overcast
11:07 PM 41.0 °F 35.8 °F 39.2 °F 93% 30.11 in 2.5 mi NNE 8.1 mph - 0.01 in Rain Light Rain
11:43 PM 39.2 °F 32.5 °F 39.2 °F 100% 30.09 in 1.5 mi North 10.4 mph - 0.10 in Rain , Thunderstorm Heavy Thunderstorms and Rain
11:56 PM 39.9 °F 33.9 °F 38.8 °F 96% 30.12 in 2.0 mi North 9.2 mph - 0.12 in Rain , Thunderstorm Light Thunderstorms and Rain